Chadron, NE

6:48 PM MST on February 19, 2017 (GMT -0700)
Chadron Municipal

Weather History for KCDR - October, 2011

Change the Weather History Date:

Thursday, October 6, 2011

  Actual Average Record
Temperature  
Mean Temperature 61 °F 52 °F  
Max Temperature 81 °F 68 °F 93 °F (1975)
Min Temperature 40 °F 35 °F 6 °F (1952)
Degree Days  
Heating Degree Days 4 14  
Month to date heating degree days 4 76  
Since 1 July heating degree days 138 287  
Cooling Degree Days 0 0  
Month to date cooling degree days 20 0  
Year to date cooling degree days 902 710  
Growing Degree Days 13 (Base 50)    
Moisture  
Dew Point 47 °F    
Average Humidity 62    
Maximum Humidity 96    
Minimum Humidity 28    
Precipitation  
Precipitation T in 0.04 in 1.10 in (1962)
Month to date precipitation T 0.32  
Year to date precipitation 14.83 15.92  
Sea Level Pressure  
Sea Level Pressure 29.42 in    
Wind  
Wind Speed 19 mph (South)    
Max Wind Speed 43 mph    
Max Gust Speed 58 mph    
Visibility 10 miles    
Events      
T = Trace of Precipitation, MM = Missing Value Source: NWS Daily Summary

Daily Weather History Graph

Daily Weather History Graph

Search for Another Location

Airport or City:

Trip Planner

Search our weather history database for the weather conditions in past years. The results will help you decide how hot, cold, wet, or windy it might be!

Date:

Astronomy

Oct. 06, 2011 Rise Set
Actual Time 6:55 AM MDT 6:25 PM MDT
Civil Twilight 6:26 AM MDT 6:53 PM MDT
Nautical Twilight 5:53 AM MDT 7:26 PM MDT
Astronomical Twilight 5:20 AM MDT 7:59 PM MDT
Moon 3:46 PM MDT (10/6) 1:38 AM MDT (10/6)
Length of Visible Light 12h 26m
Length of Day
11h 30m
Waxing Gibbous, 76% of the Moon is Illuminated
Oct 6
Waxing Gibbous
Oct 11
Full
Oct 19
Last Quarter
Oct 26
New
Nov 2
First Quarter

Hourly Weather History & Observations

Time (MDT) Temp. Windchill Dew Point Humidity Pressure Visibility Wind Dir Wind Speed Gust Speed Precip Events Conditions
12:53 AM 64.9 °F - 46.9 °F 52% 29.47 in 10.0 mi SSE 33.4 mph 42.6 mph N/A   Clear
1:53 AM 63.0 °F - 48.9 °F 60% 29.47 in 10.0 mi SSE 34.5 mph 43.7 mph N/A   Clear
3:53 AM 61.0 °F - 53.1 °F 75% 29.47 in 10.0 mi South 24.2 mph 34.5 mph N/A   Clear
4:53 AM 62.1 °F - 53.1 °F 72% 29.47 in 10.0 mi South 24.2 mph 35.7 mph N/A   Clear
6:53 AM 62.1 °F - 53.1 °F 72% 29.46 in 10.0 mi SSE 21.9 mph 27.6 mph N/A   Clear
7:53 AM 64.0 °F - 53.1 °F 67% 29.45 in 10.0 mi South 20.7 mph 29.9 mph N/A   Clear
9:53 AM 66.0 °F - 52.0 °F 60% 29.44 in 10.0 mi South 16.1 mph 27.6 mph N/A   Overcast
10:53 AM 69.1 °F - 52.0 °F 54% 29.42 in 10.0 mi South 21.9 mph 29.9 mph N/A   Mostly Cloudy
11:53 AM 73.0 °F - 51.1 °F 46% 29.38 in 10.0 mi SSE 20.7 mph 32.2 mph N/A   Clear
12:53 PM 75.9 °F - 50.0 °F 40% 29.36 in 10.0 mi South 24.2 mph 33.4 mph N/A   Clear
1:53 PM 75.9 °F - 48.9 °F 38% 29.33 in 10.0 mi SSE 25.3 mph 38.0 mph N/A   Scattered Clouds
2:53 PM 80.1 °F - 44.1 °F 28% 29.28 in 10.0 mi South 24.2 mph 33.4 mph N/A   Partly Cloudy
3:53 PM 79.0 °F - 42.1 °F 27% 29.26 in 10.0 mi SSE 28.8 mph 36.8 mph N/A   Clear
4:37 PM 73.4 °F - 44.6 °F 36% 29.39 in 10.0 mi SW 12.7 mph 21.9 mph N/A   Mostly Cloudy
4:53 PM 73.9 °F - 43.0 °F 33% 29.28 in 10.0 mi SSE 9.2 mph 21.9 mph N/A   Mostly Cloudy
5:53 PM 70.0 °F - 43.0 °F 38% 29.26 in 10.0 mi East 6.9 mph - N/A   Clear
6:53 PM 64.0 °F - 48.9 °F 58% 29.34 in 10.0 mi NW 9.2 mph - N/A   Clear
7:53 PM 53.1 °F - 42.1 °F 66% 29.50 in 10.0 mi West 24.2 mph 38.0 mph N/A   Partly Cloudy
8:53 PM 53.1 °F - 42.1 °F 66% 29.53 in 10.0 mi West 17.3 mph 25.3 mph N/A   Scattered Clouds
9:53 PM 48.9 °F - 43.0 °F 80% 29.56 in 10.0 mi West 11.5 mph - 0.00 in   Scattered Clouds
10:53 PM 46.9 °F - 44.1 °F 90% 29.59 in 10.0 mi SSW 5.8 mph - N/A   Partly Cloudy
11:53 PM 43.0 °F 38.8 °F 41.0 °F 93% 29.59 in 10.0 mi SE 6.9 mph - N/A   Clear